Location: Unspecified
(48.2082°N, 0.0000°E)
Time: 06:37:10
(UTC+00:00)

Altair - Pass Details

Date: 25 June 2019
Orbit: 1501 x 1683 km, 47.2° (Epoch: 17 July)

Event Time Altitude Azimuth Distance (km) Brightness Sun altitude
Rises 23:22:26 0° 283° (WNW) 4,784 10.4 -17.8°
Reaches altitude 10° 23:25:29 10° 281° (WNW) 3,822 9.8 -17.9°
Maximum altitude 23:35:13 72° 200° (SSW) 1,720 7.5 -18.2°
Drops below altitude 10° 23:45:14 10° 119° (ESE) 3,931 9.3 -18.3°
Sets 23:48:26 0° 118° (ESE) 4,926 9.9 -18.3°
